Regional Weather Roundup
Issued by NWS Sterling, VA

Home | Current Version | Previous Version | Text Only | Print | Product List | Glossary On
Versions: 1 2 3 4 5 6 7 8 9 10 11 12 13 14 15 16 17 18 19 20 21 22 23 24 25 26 27 28 29 30 31 32 33 34 35 36 37 38 39 40 41 42 43 44 45 46 47 48 49 50
769
ASUS41 KLWX 262311
RWRLWX

REGIONAL WEATHER ROUNDUP
NATIONAL WEATHER SERVICE BALTIMORE MD/WASHINGTON DC
700 PM EDT MON SEP 26 2016

Note: "FAIR" indicates few or no clouds below 12,000 feet
with no significant weather and/or obstructions to visibility.
 TC=TEMPERATURE CELSIUS

 * =Non NWS site. Station does not report precipitation (e.g. rain,
    snow, etc.), thunder, or fog.

DCZ001-MDZ009-015-VAZ040>042-051-053>054-270000-
WASHINGTON METRO

CITY           SKY/WX    TMP DP  RH WIND       PRES   REMARKS
WASHINGTON NAT CLOUDY    70  59  68 S9        30.04R
DULLES         CLOUDY    68  59  73 S7        30.02R
ANDREWS AFB    CLOUDY    67  58  73 SE6       30.03R
FT BELVOIR     CLOUDY    69  59  71 SE6       30.03R
QUANTICO       CLOUDY    71  62  73 S15       30.04R
COLLEGE PARK*  CLOUDY    68  55  64 CALM      30.03R
LEESBURG*      CLOUDY    70  63  78 S12G23    30.03R
MANASSAS*      CLOUDY    68  63  83 S7        30.02R
GAITHERSBURG*  CLOUDY    66  55  68 SE12      30.06F

$$

MDZ006>007-011-014-270000-
BALTIMORE METRO

CITY           SKY/WX    TMP DP  RH WIND       PRES   REMARKS
BWI AIRPORT    CLOUDY    67  56  67 S3        30.04R
MD SCIENCE CTR   N/A     70  56  61 MISG      30.04R
MARTIN STATE   CLOUDY    72  63  73 S7        30.05R
ANNAPOLIS      CLOUDY    71  58  63 S9        30.03R
FORT MEADE*    CLOUDY    64  59  82 CALM      30.06R

$$

MDZ012-015-019>023-270000-
MARYLAND EASTERN SHORE

CITY           SKY/WX    TMP DP  RH WIND       PRES   REMARKS
OCEAN CITY     CLOUDY    72  61  68 S8        30.05F
SALISBURY      MOCLDY    68  60  75 SE5       30.04F
BAY BRIDGE AP* CLOUDY    70  57  64 MISG      30.03S
CAMBRIDGE*     CLOUDY    68  54  60 CALM      30.04R
EASTON*        CLOUDY    72  52  49 S8        30.08R

$$

MDZ017>025-270000-
SOUTHERN MARYLAND

CITY           SKY/WX    TMP DP  RH WIND       PRES   REMARKS
PATUXENT RIVER CLOUDY    70  57  63 S5        30.03R
ST INIGOES     CLOUDY    72  57  59 S8        30.03R
LEONARDTOWN*   CLOUDY    68  57  68 S3        30.05R

$$

MDZ003>005-270000-
NORTH CENTRAL MARYLAND

CITY           SKY/WX    TMP DP  RH WIND       PRES   REMARKS
FREDERICK*     CLOUDY    68  63  83 S6        30.04R
HAGERSTOWN APT LGT RAIN  66  58  75 S10       30.00R

$$

MDZ501>502-270000-
WESTERN MARYLAND

CITY           SKY/WX    TMP DP  RH WIND       PRES   REMARKS
OAKLAND*       CLOUDY    63  61  94 SW3       30.02S
CUMBERLAND*    CLOUDY    68  63  83 N6        30.00R

$$

VAZ025>031-270000-
SHENANDOAH VALLEY

CITY           SKY/WX    TMP DP  RH WIND       PRES   REMARKS
WINCHESTER*    LGT RAIN  64  61  88 S13G18    29.99R
FRONT ROYAL*   CLOUDY    66  63  88 S8        30.00R
LURAY*         RAIN      64  64 100 S8G18     30.01R
NEW MARKET*    CLOUDY   N/A N/A N/A SW3       30.00R
STAUNTON*      TSTM      64  62  95 S5        30.05S
WAYNESBORO*    CLOUDY    65  61  86 S5        30.07R

$$

WVZ021-048>050-054>055-270000-
EASTERN WEST VIRGINIA PANHANDLE

CITY           SKY/WX    TMP DP  RH WIND       PRES   REMARKS
MARTINSBURG    LGT RAIN  65  60  84 S9        29.99R
PETERSBURG*    DRIZZLE   71  67  85 S3        29.97R

$$

VAZ036>039-050-270000-
CENTRAL FOOTHILLS

CITY           SKY/WX    TMP DP  RH WIND       PRES   REMARKS
CHARLOTTESVILL CLOUDY    69  60  73 S8        30.03R
CULPEPER*      CLOUDY    69  62  81 S3        30.04R
ORANGE*          N/A     68  64  88 CALM      30.05S
GORDONSVILLE*  NOT AVBL
WARRENTON*     CLOUDY    68  56  65 S5        30.03R

$$

VAZ055>057-270000-
NORTH AND CENTRAL PIEDMONT

CITY           SKY/WX    TMP DP  RH WIND       PRES   REMARKS
FREDERICKSBRG* CLOUDY    69  63  82 S3        30.03R
STAFFORD*      CLOUDY    67  62  83 SE5       30.07R

$$

NCZ024-NYZ072-PAZ021-071-VAZ022-071-270000-
OTHER REGIONAL OBSERVATIONS

CITY           SKY/WX    TMP DP  RH WIND       PRES   REMARKS
NEW YORK CITY  CLOUDY    67  49  52 S8        30.08F
PHILADELPHIA   CLOUDY    69  53  56 S7        30.05S
PITTSBURGH     CLOUDY    64  60  87 W6        29.97R
ROANOKE        LGT RAIN  68  67  96 E7        30.05S FOG
RICHMOND       CLOUDY    69  61  75 SE6       30.03R
RALEIGH        MOCLDY    74  66  76 S6        30.04S

$$

ANZ530>537-270000-
MARINE OBSERVATIONS

STATION/POSITION TIME  TEMP    WIND        PRES
                       AIR SEA DIR/SP/G
                 (UTC) (F)     (DEG/KT/KT) (MB)
THOMAS PT LIGHT  2300   71 74  160/ 16/ 19 1017.9R
BALT KEY BRIDGE  2248          190/  8/ 10 1017.1R
COVE POINT       2248          210/ 14/ 16 1017.5R
LEWISETTA        2248      74  180/  6/  7 1016.7R
SOLOMONS ISLAND  2248      76  170/  8/  9   N/A
PINEY POINT      2248          180/ 11/ 14   N/A

$$





USA.gov is the U.S. government's official web portal to all federal, state and local government web resources and services.